Showing default

QIANFAN-27, 61560

Orbit data source: Space-Track

QIANFAN-27, 61560 is a Chinese payload satellite in LEO that was launched on Tue, 15 Oct 2024 UTC via a CHANG ZHENG 6A launch vehicle from the Taiyaun Space Center, China (TSC). Payload-class satellites include a variety of spacecraft equipped with specific instruments for various scientific and technological missions. These include communications satellites like Starlink; space stations such as the ISS; scientific satellites like the Hubble; Earth observation satellites from companies like Planet Labs, Umbra, and HawkEye 360; GPS; miniature CubeSats for education and research; and military/defense satellites.

Loading next visibility...
Identifier
61560, 2024-185J
Orbit
LEO
Country
Flag of CNCN / PRC
Related business
Manufacturer
GESIH/SECM
Mission
Partially operational Commercial Communications
Bus & Motor
QIANFAN, Unknown motor
Mass
267 kg wet, ~267 kg dry
Launch date (UTC)
2024-10-15 (1 year ago)
Launch vehicle
CHANG ZHENG 6A
Launch site
Taiyaun Space Center, China (TSC)
Object type
Payload
Rocket body
Debris
Shape & HBR
Box + 1 Pan, 5.0 m
Radar Cross Section
13.200 m², Large (>1 m²)

Expand to show TLE details & history
Last TLE update: 10 hours ago

TLE from 10 hours ago
0 QIANFAN-27
1 61560U 24185J   25346.95885626  .00000920  00000-0  36990-3 0  9998
2 61560  88.9807  76.9182 0005641 293.0411  67.0188 14.27334083 70191
Epoch: 2025-12-12T23:00Z
TLE epoch observation values (Epoch: 2025-12-12T23:00:45.180Z)
Latitude
-0.00005°
Longitude
9.83694°
Altitude
802.14 km
Speed
7.453 km/s
True Right ascension
05h 07m 40s
True Declination
0° 00' 00"
Sunlit
Object was in full shadow at epoch
Visualization orbit readout
Latitude
Unknown
Longitude
Unknown
Altitude
Unknown
Speed
Unknown
Apparent Right ascension
Unknown
Apparent Declination
Unknown
Sunlit
N/A
Visualization observer readout
Local Sidereal Time
07:33:25
Azimuth
Unknown
Elevation
Unknown
Doppler factor
Unknown
Orbital elements
Apogee altitude
801.644 km
Perigee altitude
793.549 km
Semi-major axis
7,175.734 km
Eccentricity
0.00056
Inclination
88.9807°
RAAN
76.9182°
Arg. of periapsis
293.0411°
True anomaly
67.07833°
Mean anomaly
67.0188°
Eccentric anomaly
67.04856°
Mean motion
3.57062 °/min
Orbital period
100.82 mins
BSTAR
0.0003699
Loading maneuver chart data...
Computing Atmospheric mass density...
Loading historical data...
Loading historical data...
Loading historical data...
Loading historical data...
Loading historical data...
Loading historical data...
Loading historical data...

Documentation

Showing up to 5 results
|